[[{"header":{"parameterUnit":"m.s-1","parameterCategory":1,"la1":30.2991,"la2":30.254,"lo1":-89.0895,"lo2":-89.0444,"dy":0.0017,"dx":0.0017,"nx":28,"ny":28,"refTime":"2023-08-19T03:00:00:Z","depth":0,"parameterNumber":2,"parameterNumberName":"U-component_of_WINDS"},"data":[0,0,0,0,0,0,0,0,0,0,0,0,0,0,0,0,0,0,0,0,0,0,0,0,0,0,0,0,0,0,0,0,0,0,0,0,0,0,0,0,0,0,0,0,0,0,0,0,0,0,0,0,0,0,0,0,0,0,-0.437,-0.4371,0,-0.4411,-0.4412,-0.4412,-0.4459,-0.446,-0.4461,-0.4461,-0.4499,-0.45,-0.45,0,0,0,0,0,0,0,0,0,0,0,0,0,-0.433,-0.4331,-0.437,-0.4371,-0.4371,-0.4411,-0.4412,-0.4412,-0.4459,-0.446,-0.4461,-0.4462,-0.4499,-0.45,-0.45,0,0,0,0,0,0,0,0,0,0,0,0,0,-0.4357,-0.4331,-0.437,-0.4399,-0.4402,-0.4411,-0.4412,-0.4412,-0.4459,-0.446,-0.4461,-0.4462,-0.4499,-0.45,-0.45,-0.4482,0,0,-0.4502,-0.4502,0,0,0,0,0,0,0,0,-0.4355,-0.4358,-0.4395,-0.4397,-0.4401,-0.4431,-0.4412,-0.4436,-0.4459,-0.4437,-0.4461,-0.4462,-0.4476,-0.4478,-0.4483,-0.4484,-0.4485,-0.4502,-0.4502,-0.4502,-0.4503,0,0,0,0,0,0,0,-0.4353,-0.4357,-0.4386,-0.4395,-0.4399,-0.441,-0.4415,-0.4416,-0.445,-0.4439,-0.4443,-0.4447,-0.4477,-0.4483,-0.4485,-0.4486,-0.4502,-0.4502,-0.4503,-0.4503,-0.4475,-0.4474,0,0,0,0,0,0,-0.4348,-0.4355,-0.4385,-0.4388,-0.438,-0.441,-0.4415,-0.442,-0.445,-0.4456,-0.4446,-0.4449,-0.4481,-0.4484,-0.4486,-0.4467,-0.4502,-0.4503,-0.4503,-0.4476,-0.4475,-0.4474,0,0,0,0,0,0,-0.4346,-0.435,-0.4383,-0.4372,-0.4377,-0.4409,-0.4415,-0.4421,-0.4426,-0.4455,-0.4461,-0.4446,-0.4482,-0.4485,-0.4483,-0.4469,-0.4503,-0.4504,-0.4478,-0.4476,-0.4475,-0.4429,0,0,0,0,0,0,-0.4345,-0.4349,-0.4343,-0.4372,-0.4378,-0.438,-0.4414,-0.4421,-0.4427,-0.4431,-0.4456,-0.4461,-0.4483,-0.4482,-0.4484,-0.4471,-0.4504,-0.4479,-0.4477,-0.4475,-0.4432,-0.4426,-0.4422,0,0,0,0,0,-0.4344,-0.4327,-0.4342,-0.4345,-0.4371,-0.4379,-0.4383,-0.4409,-0.4426,-0.4419,-0.4439,-0.446,-0.4471,-0.4482,-0.4484,-0.4471,-0.448,-0.4477,-0.4475,-0.4435,-0.4428,-0.4422,0,0,0,0,0,0,-0.4293,-0.4331,-0.4348,-0.4341,-0.4357,-0.4387,-0.438,-0.4401,-0.4411,-0.4414,-0.4446,-0.4452,-0.4446,-0.4458,-0.4469,-0.4456,-0.4479,-0.4477,-0.4447,-0.4441,-0.4435,-0.4432,-0.4504,0,0,0,0,0,-0.4282,-0.4287,-0.4319,-0.431,-0.4317,-0.4347,-0.4352,-0.4371,-0.4388,-0.4395,-0.4414,-0.4429,-0.4436,-0.4439,-0.4447,-0.4435,-0.4441,-0.4427,-0.4422,-0.4417,-0.4415,-0.441,-0.4404,-0.4466,-0.4466,-0.4466,0,0,-0.4257,-0.4279,-0.4279,-0.43,-0.4315,-0.4318,-0.4352,-0.4354,-0.4357,-0.4395,-0.4394,-0.4409,-0.4428,-0.4421,-0.4419,-0.4431,-0.4399,-0.4414,-0.4411,-0.441,-0.4407,-0.4401,-0.4396,-0.4465,-0.4465,-0.4465,0,0,-0.4214,-0.4231,-0.4225,-0.424,-0.4263,-0.4283,-0.4282,-0.431,-0.4322,-0.4322,-0.4351,-0.4355,-0.4366,-0.4378,-0.4386,-0.4351,-0.4372,-0.4353,-0.4324,-0.4319,-0.4314,-0.431,-0.4298,-0.4293,-0.4351,-0.435,-0.435,0,-0.418,-0.4187,-0.4219,-0.422,-0.4229,-0.4266,-0.426,-0.4273,-0.4296,-0.43,-0.4315,-0.4331,-0.4346,-0.4343,-0.4335,-0.434,-0.4339,-0.4349,-0.4313,-0.4309,-0.4306,-0.4294,-0.4289,-0.4348,-0.4348,-0.4349,-0.4349,0,-0.4145,-0.415,-0.4142,-0.4166,-0.4174,-0.4171,-0.4203,-0.4207,-0.4227,-0.4246,-0.4247,-0.4267,-0.428,-0.4281,-0.4299,-0.4281,-0.4288,-0.4307,-0.4331,-0.4297,-0.4286,-0.4282,-0.4344,-0.4345,-0.4346,-0.4347,0,0,-0.4068,-0.4112,-0.4108,-0.412,-0.4149,-0.4153,-0.4153,-0.4168,-0.4171,-0.4186,-0.4187,-0.4197,-0.4215,-0.4224,-0.4245,-0.4241,-0.4212,-0.4261,-0.4262,-0.425,-0.4193,-0.4178,-0.4172,-0.4227,-0.4226,-0.4226,-0.4191,0,-0.4029,-0.4032,-0.4062,-0.4056,-0.4061,-0.4098,-0.4098,-0.4116,-0.4134,-0.4141,-0.4161,-0.4168,-0.4192,-0.4198,-0.4196,-0.4216,-0.4201,-0.4219,-0.4226,-0.4226,-0.4219,-0.4167,-0.415,-0.4116,-0.4188,-0.4187,-0.4186,0,-0.3983,-0.3999,-0.3994,-0.4025,-0.4028,-0.4027,-0.4044,-0.4051,-0.4072,-0.4086,-0.4097,-0.4121,-0.4123,-0.4147,-0.415,-0.4162,-0.4167,-0.4178,-0.4177,-0.4177,-0.4203,-0.4164,-0.4107,-0.4101,-0.418,-0.4181,-0.4181,0,-0.3927,-0.3947,-0.3947,-0.3956,-0.3992,-0.3991,-0.4006,-0.4028,-0.4036,-0.405,-0.4056,-0.407,-0.4077,-0.4087,-0.4115,-0.413,-0.4114,-0.4141,-0.4125,-0.4124,-0.4118,-0.4118,-0.4059,-0.4124,-0.4124,-0.4124,-0.4124,0,-0.388,-0.3875,-0.3922,-0.3922,-0.3918,-0.3953,-0.3948,-0.3966,-0.3987,-0.399,-0.4023,-0.4026,-0.4063,-0.4069,-0.4091,-0.409,-0.4093,-0.4104,-0.4109,-0.41,-0.4099,-0.4102,-0.4105,-0.4123,-0.4123,-0.4123,-0.4124,0,-0.3816,-0.3847,-0.3849,-0.3885,-0.3894,-0.3889,-0.3919,-0.392,-0.3942,-0.3947,-0.395,-0.3983,-0.3993,-0.4023,-0.4039,-0.4054,-0.4046,-0.4058,-0.4039,-0.4043,-0.4025,-0.4026,-0.3966,-0.396,-0.4029,-0.4028,-0.4028,0,-0.3782,-0.378,-0.3816,-0.3822,-0.3836,-0.3845,-0.3853,-0.3889,-0.3896,-0.3922,-0.3919,-0.3933,-0.3944,-0.3959,-0.3984,-0.3997,-0.4008,-0.3987,-0.401,-0.4002,-0.4007,-0.4006,-0.4006,-0.398,-0.398,-0.3979,-0.3978,0,-0.372,-0.3737,-0.3749,-0.3767,-0.3777,-0.3792,-0.3809,-0.3812,-0.3851,-0.3858,-0.387,-0.3879,-0.3898,-0.391,-0.3928,-0.3943,-0.3967,-0.3971,-0.3968,-0.3958,-0.3947,-0.3952,-0.4024,-0.3972,-0.3972,-0.3973,-0.3973,-0.3973,-0.367,-0.367,-0.3696,-0.3709,-0.3726,-0.3742,-0.3745,-0.3769,-0.378,-0.3799,-0.3819,-0.3828,-0.3851,-0.3878,-0.3892,-0.3899,-0.3912,-0.3907,-0.3906,-0.3904,-0.39,-0.3948,-0.3902,-0.3903,-0.3903,-0.3903,-0.3903,0,-0.3609,-0.3628,-0.364,-0.3664,-0.3674,-0.3699,-0.372,-0.3726,-0.3735,-0.3755,-0.3767,-0.3781,-0.3794,-0.3822,-0.3837,-0.3838,-0.3849,-0.384,-0.384,-0.3843,-0.3888,-0.3888,-0.3831,-0.3831,-0.3831,-0.3831,-0.3831,-0.3831,-0.3578,-0.358,-0.36,-0.3611,-0.363,-0.3641,-0.3651,-0.3666,-0.3682,-0.3697,-0.3708,-0.3728,-0.3751,-0.3769,-0.3782,-0.3789,-0.3793,-0.378,-0.3791,-0.3833,-0.3839,-0.3846,-0.3847,-0.3781,-0.3781,-0.3746,-0.3746,-0.3745]},{"header":{"parameterUnit":"m.s-1","parameterCategory":1,"la1":30.2991,"la2":30.254,"lo1":-89.0895,"lo2":-89.0444,"dy":0.0017,"dx":0.0017,"nx":28,"ny":28,"refTime":"2023-08-19T03:00:00:Z","depth":0,"parameterNumber":3,"parameterNumberName":"V-component_of_WINDS"},"data":[0,0,0,0,0,0,0,0,0,0,0,0,0,0,0,0,0,0,0,0,0,0,0,0,0,0,0,0,0,0,0,0,0,0,0,0,0,0,0,0,0,0,0,0,0,0,0,0,0,0,0,0,0,0,0,0,0,0,-0.3183,-0.3184,0,-0.3259,-0.326,-0.3261,-0.3298,-0.3298,-0.3298,-0.3298,-0.3379,-0.3381,-0.3383,0,0,0,0,0,0,0,0,0,0,0,0,0,-0.3072,-0.3074,-0.3183,-0.3184,-0.3185,-0.3259,-0.326,-0.3261,-0.3298,-0.3298,-0.3298,-0.3298,-0.3378,-0.338,-0.3383,0,0,0,0,0,0,0,0,0,0,0,0,0,-0.3132,-0.3075,-0.3183,-0.3212,-0.3215,-0.3259,-0.326,-0.3261,-0.3298,-0.3298,-0.3298,-0.3298,-0.3377,-0.338,-0.3383,-0.3404,0,0,-0.3393,-0.3395,0,0,0,0,0,0,0,0,-0.3128,-0.3136,-0.3207,-0.321,-0.3214,-0.3269,-0.3251,-0.3309,-0.3298,-0.3267,-0.3298,-0.3298,-0.3342,-0.3348,-0.3363,-0.3408,-0.3411,-0.3394,-0.3396,-0.3397,-0.3398,0,0,0,0,0,0,0,-0.3124,-0.3133,-0.3213,-0.3208,-0.3212,-0.3222,-0.3231,-0.3262,-0.3304,-0.3269,-0.3272,-0.3281,-0.3344,-0.336,-0.3365,-0.3412,-0.3393,-0.3396,-0.3398,-0.34,-0.3479,-0.3479,0,0,0,0,0,0,-0.3115,-0.3129,-0.3211,-0.3215,-0.317,-0.3224,-0.3234,-0.3251,-0.3304,-0.3311,-0.3281,-0.3282,-0.3354,-0.3361,-0.3368,-0.3396,-0.3397,-0.34,-0.3402,-0.3479,-0.3479,-0.3479,0,0,0,0,0,0,-0.3112,-0.3122,-0.3208,-0.3173,-0.3185,-0.3226,-0.3246,-0.3253,-0.3268,-0.3312,-0.332,-0.3288,-0.3354,-0.3363,-0.3395,-0.3399,-0.3401,-0.3404,-0.3479,-0.3479,-0.3479,-0.3452,0,0,0,0,0,0,-0.3109,-0.3121,-0.3128,-0.3173,-0.3186,-0.3232,-0.3246,-0.3254,-0.3273,-0.3276,-0.3321,-0.3329,-0.3355,-0.339,-0.3398,-0.3404,-0.3407,-0.3479,-0.3479,-0.3479,-0.3453,-0.3451,-0.345,0,0,0,0,0,-0.3105,-0.3118,-0.3128,-0.3138,-0.3197,-0.3232,-0.324,-0.3269,-0.3274,-0.3282,-0.331,-0.3327,-0.3397,-0.3393,-0.3402,-0.3409,-0.3478,-0.3479,-0.3479,-0.3453,-0.3452,-0.345,0,0,0,0,0,0,-0.3074,-0.3124,-0.3136,-0.3164,-0.3194,-0.3239,-0.325,-0.3266,-0.3296,-0.3297,-0.3333,-0.3343,-0.3371,-0.3393,-0.3387,-0.3432,-0.344,-0.3442,-0.3417,-0.3415,-0.3414,-0.3408,-0.341,0,0,0,0,0,-0.307,-0.3094,-0.3137,-0.3158,-0.3172,-0.3208,-0.3225,-0.3245,-0.3277,-0.329,-0.332,-0.3352,-0.3381,-0.3399,-0.3429,-0.3456,-0.3467,-0.3466,-0.3464,-0.3463,-0.3465,-0.3482,-0.3482,-0.348,-0.348,-0.348,0,0,-0.3063,-0.3093,-0.3106,-0.3152,-0.3177,-0.3202,-0.3218,-0.3244,-0.3263,-0.3294,-0.3325,-0.3349,-0.3386,-0.3416,-0.343,-0.3435,-0.3467,-0.3463,-0.3462,-0.3465,-0.3482,-0.3482,-0.3482,-0.3481,-0.3481,-0.3481,0,0,-0.3062,-0.3087,-0.3107,-0.3132,-0.317,-0.3194,-0.3198,-0.3241,-0.3257,-0.3289,-0.3313,-0.3337,-0.3386,-0.3412,-0.3431,-0.3441,-0.3458,-0.3449,-0.3443,-0.3459,-0.3459,-0.3459,-0.3463,-0.3464,-0.3451,-0.3451,-0.3451,0,-0.3049,-0.3086,-0.3116,-0.314,-0.316,-0.3188,-0.3209,-0.3232,-0.3277,-0.3291,-0.3295,-0.3358,-0.3385,-0.3421,-0.3423,-0.3438,-0.3445,-0.3445,-0.3456,-0.3457,-0.3458,-0.3462,-0.3463,-0.345,-0.345,-0.345,-0.345,0,-0.3068,-0.3094,-0.3106,-0.3148,-0.3169,-0.3192,-0.3225,-0.3243,-0.3261,-0.3285,-0.3318,-0.3351,-0.3388,-0.3398,-0.3416,-0.3437,-0.3439,-0.3449,-0.3457,-0.3456,-0.346,-0.3462,-0.3448,-0.3448,-0.3449,-0.3449,0,0,-0.3051,-0.3109,-0.3113,-0.3132,-0.3176,-0.3197,-0.3221,-0.3256,-0.3271,-0.3301,-0.3323,-0.3364,-0.3374,-0.3396,-0.3417,-0.3431,-0.3437,-0.344,-0.3442,-0.3439,-0.3463,-0.3455,-0.3456,-0.3448,-0.3449,-0.3449,-0.346,0,-0.3057,-0.31,-0.3128,-0.3161,-0.3185,-0.3212,-0.3233,-0.3263,-0.3286,-0.3311,-0.3337,-0.3365,-0.3376,-0.339,-0.3405,-0.3433,-0.3442,-0.3433,-0.347,-0.3471,-0.346,-0.3459,-0.345,-0.3459,-0.3462,-0.3462,-0.3462,0,-0.307,-0.3099,-0.3134,-0.3175,-0.3186,-0.3204,-0.3239,-0.3262,-0.3296,-0.3312,-0.3336,-0.3358,-0.3385,-0.3391,-0.343,-0.3422,-0.3439,-0.3456,-0.3457,-0.3462,-0.3467,-0.3464,-0.3462,-0.3464,-0.3465,-0.3465,-0.3465,0,-0.3054,-0.3102,-0.3129,-0.3145,-0.3193,-0.3206,-0.3226,-0.326,-0.328,-0.331,-0.3323,-0.3357,-0.3375,-0.3401,-0.3431,-0.3432,-0.3467,-0.3475,-0.3482,-0.3481,-0.3489,-0.3488,-0.349,-0.3499,-0.3499,-0.3498,-0.3498,0,-0.3058,-0.3079,-0.3123,-0.3139,-0.3164,-0.3195,-0.3218,-0.3242,-0.3272,-0.3294,-0.332,-0.3341,-0.3379,-0.3405,-0.3428,-0.3457,-0.3466,-0.348,-0.3486,-0.3478,-0.3476,-0.349,-0.349,-0.3499,-0.3499,-0.3499,-0.3499,0,-0.3045,-0.3075,-0.3107,-0.3149,-0.3161,-0.3177,-0.3214,-0.3232,-0.3256,-0.3284,-0.3293,-0.3331,-0.3363,-0.3395,-0.3438,-0.3454,-0.3483,-0.3491,-0.3471,-0.3474,-0.348,-0.3479,-0.3491,-0.3495,-0.35,-0.35,-0.35,0,-0.3046,-0.3062,-0.3107,-0.3123,-0.3143,-0.3169,-0.3189,-0.3221,-0.3241,-0.3281,-0.3294,-0.3327,-0.3356,-0.3405,-0.3437,-0.3471,-0.348,-0.3482,-0.3485,-0.3477,-0.3481,-0.348,-0.3482,-0.3481,-0.3481,-0.3481,-0.3481,0,-0.3045,-0.3059,-0.3085,-0.3118,-0.314,-0.3167,-0.3196,-0.3208,-0.3245,-0.3266,-0.3298,-0.332,-0.3364,-0.3397,-0.3434,-0.3457,-0.3475,-0.3479,-0.3483,-0.3475,-0.3463,-0.347,-0.3468,-0.3479,-0.3479,-0.3479,-0.3479,-0.3479,-0.3039,-0.3055,-0.3089,-0.3118,-0.3142,-0.3168,-0.3187,-0.3213,-0.324,-0.3277,-0.3295,-0.3327,-0.3362,-0.3413,-0.3435,-0.3462,-0.3467,-0.3472,-0.3473,-0.3474,-0.3472,-0.3458,-0.3469,-0.3469,-0.3469,-0.3469,-0.3469,0,-0.3039,-0.3062,-0.3089,-0.3127,-0.315,-0.3165,-0.3197,-0.3215,-0.3243,-0.3273,-0.33,-0.3338,-0.337,-0.3404,-0.3439,-0.3453,-0.3463,-0.3461,-0.3461,-0.3466,-0.3465,-0.3459,-0.3453,-0.3453,-0.3453,-0.3453,-0.3453,-0.3453,-0.3042,-0.307,-0.3088,-0.3129,-0.3152,-0.3183,-0.32,-0.3224,-0.3248,-0.3288,-0.3315,-0.3337,-0.3369,-0.3406,-0.3437,-0.3446,-0.3458,-0.3454,-0.3466,-0.3465,-0.3466,-0.3467,-0.3462,-0.3456,-0.3456,-0.3465,-0.3465,-0.3465]}]]